Flag for U.S.A. Weather past 2 weeks in Kodiak, Alaska, U.S.A.

Now
50 °F

Clear.


Feels Like: 47 °F
Forecast: 49 / 61 °F
Wind: 7 mph from Northwest

Location: Kodiak Weather Reporting Station

Current Time: Sep 1, 2015 at 3:15:15 AM

Latest Report: Sep 1, 2015 at 1:53 AM


Visibility: 10 mi

Pressure: 29.94 "Hg

Humidity: 48%

Dew point: 31 °F

Location of KodiakLocation

Historic Weather in Kodiak — Graph

°F

Kodiak temperature yesterday

Maximum temperature yesterday: 58 °F (at 4:53 PM)
Minimum temperature yesterday: 51 °F (at 4:53 AM)
Average temperature yesterday: 54 °F

Past Weeks' High & Low Weather Summary

 TemperatureHumidityPressure
High71 °F (Aug 24, 2:53 PM)93% (Aug 17, 1:53 AM)30.25 "Hg (Aug 17, 1:53 AM)
Low45 °F (Aug 20, 6:53 AM)25% (Aug 28, 5:53 PM)29.36 "Hg (Aug 29, 9:53 PM)
Average59 °F60%29.86 "Hg
* Reported Aug 17 1:53 AM — Sep 1 1:53 AM, Kodiak, Weather by CustomWeather, © 2015

Note: Actual official high and low records may vary slightly from our data, if they occured in-between our weather recording intervals... More about our weather records

Advertising

Kodiak weather history for previous 24 hours

 ConditionsComfort  
Time TempWeatherWind HumidityBarometerVisibility
1:53 AM
Tue, Sep 1
50 °FClear.7 mph48%29.94 "Hg10 mi
12:53 AM51 °FClear.6 mph46%29.93 "Hg10 mi
11:53 PM
Mon, Aug 31
51 °FClear.5 mph46%29.92 "Hg10 mi
10:53 PM52 °FClear.7 mph45%29.91 "Hg10 mi
9:53 PM51 °FSunny.7 mph46%29.89 "Hg10 mi
8:53 PM52 °FSunny.10 mph45%29.87 "Hg10 mi
6:53 PM58 °FSunny.13 mph33%29.83 "Hg10 mi
5:53 PM58 °FSunny.18 mph32%29.81 "Hg10 mi
4:53 PM58 °FScattered clouds.22 mph32%29.77 "Hg10 mi
3:53 PM57 °FPassing clouds.24 mph33%29.78 "Hg10 mi
2:53 PM56 °FPassing clouds.17 mph36%29.76 "Hg10 mi
1:53 PM56 °FScattered clouds.30 mph36%29.72 "Hg10 mi
12:53 PM54 °FScattered clouds.28 mph37%29.70 "Hg10 mi
10:53 AM52 °FScattered clouds.26 mph43%29.68 "Hg10 mi
9:53 AM52 °FScattered clouds.21 mph50%29.66 "Hg10 mi
8:53 AM52 °FScattered clouds.29 mph45%29.65 "Hg10 mi
7:53 AM52 °FPassing clouds.29 mph43%29.64 "Hg10 mi
6:53 AM51 °FPassing clouds.15 mph50%29.64 "Hg10 mi
5:53 AM53 °FPassing clouds.29 mph48%29.62 "Hg10 mi
4:53 AM51 °FPassing clouds.15 mph56%29.62 "Hg10 mi
3:53 AM53 °FPassing clouds.18 mph52%29.59 "Hg10 mi
Weather by CustomWeather, © 2015

See weather overviewHow to use our weather pages